Weather History for Clovis, NM

Change the Weather History Date:

Saturday, February 23, 2013

  Actual Average Record
Temperature  
Mean Temperature 42 °F -  
Max Temperature 60 °F 58 °F 78 °F (2009)
Min Temperature 24 °F 27 °F 5 °F (1960)
Degree Days  
Heating Degree Days 23    
Moisture  
Dew Point 18 °F    
Average Humidity 51    
Maximum Humidity 93    
Minimum Humidity 15    
Precipitation  
Precipitation 0.01 in - - ()
Sea Level Pressure  
Sea Level Pressure 29.85 in    
Wind  
Wind Speed 11 mph (SW)    
Max Wind Speed 28 mph    
Max Gust Speed 33 mph    
Visibility 8 miles    
Events      
Averages and records for this station are not official NWS values.
T = Trace of Precipitation, MM = Missing Value Source: NWS Daily Summary

Daily Weather History Graph

Daily Weather History Graph

Search for Another Location

Airport:

Trip Planner

Search our weather history database for the weather conditions in past years. The results will help you decide how hot, cold, wet, or windy it might be!

Date:

Astronomy

Feb. 23, 2013 Rise Set
Actual Time 6:28 AM MST 5:43 PM MST
Civil Twilight 6:02 AM MST 6:08 PM MST
Nautical Twilight 5:33 AM MST 6:38 PM MST
Astronomical Twilight 5:04 AM MST 7:07 PM MST
Moon 3:58 PM MST (2/23) 4:48 AM MST (2/23)
Length of Visible Light 12h 05m
Length of Day
11h 15m
Waxing Gibbous, 95% of the Moon is Illuminated
Feb 23
Waxing Gibbous
Feb 25
Full
Mar 4
Last Quarter
Mar 11
New
Mar 19
First Quarter

Hourly Weather History & Observations

Time (MST) Temp. Windchill Dew Point Humidity Pressure Visibility Wind Dir Wind Speed Gust Speed Precip Events Conditions
12:15 AM 33.8 °F 28.6 °F 26.6 °F 75% 29.99 in 4.0 mi South 5.8 mph - N/A   Overcast
12:35 AM 32.0 °F 26.4 °F 28.4 °F 87% 29.99 in 2.0 mi South 5.8 mph - N/A   Overcast
12:55 AM 32.0 °F 27.5 °F 28.4 °F 87% 29.98 in 5.0 mi South 4.6 mph - N/A   Overcast
1:15 AM 32.0 °F 26.4 °F 28.4 °F 87% 29.98 in 2.0 mi SSW 5.8 mph - N/A   Overcast
1:35 AM 33.8 °F 29.6 °F 28.4 °F 81% 29.97 in 1.5 mi SSW 4.6 mph - N/A   Overcast
1:55 AM 32.0 °F 27.5 °F 28.4 °F 87% 29.96 in 1.5 mi South 4.6 mph - 0.01 in   Overcast
2:15 AM 32.0 °F 24.8 °F 28.4 °F 87% 29.93 in 3.0 mi SE 8.1 mph - N/A   Overcast
2:35 AM 32.0 °F 25.6 °F 28.4 °F 87% 29.94 in 3.0 mi South 6.9 mph - N/A   Overcast
2:55 AM 30.2 °F 21.3 °F 28.4 °F 93% 29.92 in 5.0 mi SSE 10.4 mph - N/A   Overcast
3:15 AM 30.2 °F 22.6 °F 28.4 °F 93% 29.92 in 6.0 mi SSE 8.1 mph - N/A   Overcast
3:35 AM 30.2 °F 21.9 °F 26.6 °F 86% 29.92 in 6.0 mi South 9.2 mph - N/A   Overcast
3:55 AM 30.2 °F 22.6 °F 26.6 °F 86% 29.91 in 5.0 mi South 8.1 mph - N/A   Overcast
4:15 AM 30.2 °F 19.8 °F 28.4 °F 93% 29.91 in 2.5 mi WSW 13.8 mph - N/A   Overcast
4:35 AM 30.2 °F 21.3 °F 26.6 °F 86% 29.91 in 0.8 mi SW 10.4 mph - N/A   Overcast
4:55 AM 28.4 °F 18.5 °F 24.8 °F 86% 29.91 in 10.0 mi WSW 11.5 mph - N/A   Scattered Clouds
5:15 AM 28.4 °F 18.5 °F 23.0 °F 80% 29.91 in 10.0 mi West 11.5 mph - N/A   Clear
5:35 AM 28.4 °F 18.0 °F 21.2 °F 74% 29.91 in 10.0 mi West 12.7 mph - N/A   Clear
5:55 AM 26.6 °F 16.2 °F 19.4 °F 74% 29.91 in 10.0 mi West 11.5 mph - N/A   Clear
6:15 AM 24.8 °F 15.3 °F 17.6 °F 74% 29.92 in 10.0 mi WNW 9.2 mph - N/A   Clear
6:35 AM 24.8 °F 16.1 °F 15.8 °F 69% 29.92 in 9.0 mi WNW 8.1 mph - N/A   Scattered Clouds
6:55 AM 24.8 °F 16.9 °F 19.4 °F 80% 29.91 in 0.2 mi WNW 6.9 mph - N/A   Overcast
7:15 AM 24.8 °F 14.6 °F 19.4 °F 80% 29.93 in 0.2 mi West 10.4 mph - N/A   Overcast
7:35 AM 24.8 °F 20.5 °F 19.4 °F 80% 29.93 in 0.8 mi WNW 3.5 mph - N/A   Overcast
7:55 AM 24.8 °F 17.9 °F 19.4 °F 80% 29.94 in 10.0 mi WSW 5.8 mph - N/A   Partly Cloudy
8:15 AM 28.4 °F 19.7 °F 23.0 °F 80% 29.94 in 10.0 mi West 9.2 mph - N/A   Clear
8:35 AM 30.2 °F 20.8 °F 21.2 °F 69% 29.94 in 10.0 mi West 11.5 mph - N/A   Clear
8:55 AM 32.0 °F 21.2 °F 21.2 °F 64% 29.94 in 10.0 mi West 16.1 mph - N/A   Clear
9:15 AM 33.8 °F 23.2 °F 23.0 °F 65% 29.94 in 10.0 mi West 17.3 mph 21.9 mph N/A   Clear
9:35 AM 35.6 °F 25.9 °F 24.8 °F 65% 29.93 in 10.0 mi West 16.1 mph 21.9 mph N/A   Clear
9:55 AM 37.4 °F 27.5 °F 24.8 °F 60% 29.93 in 10.0 mi West 18.4 mph 24.2 mph N/A   Clear
10:15 AM 39.2 °F 29.3 °F 24.8 °F 56% 29.92 in 10.0 mi West 20.7 mph 27.6 mph N/A   Clear
10:35 AM 41.0 °F 32.2 °F 23.0 °F 49% 29.91 in 10.0 mi West 18.4 mph 27.6 mph N/A   Clear
10:55 AM 42.8 °F 34.5 °F 21.2 °F 42% 29.91 in 10.0 mi West 18.4 mph 24.2 mph N/A   Clear
11:15 AM 44.6 °F 36.1 °F 21.2 °F 39% 29.90 in 10.0 mi West 21.9 mph 26.5 mph N/A   Clear
11:35 AM 46.4 °F 39.8 °F 21.2 °F 37% 29.89 in 10.0 mi West 16.1 mph 27.6 mph N/A   Clear
11:55 AM 48.2 °F - 19.4 °F 32% 29.87 in 10.0 mi WSW 18.4 mph 24.2 mph N/A   Clear
12:15 PM 50.0 °F - 17.6 °F 28% 29.86 in 10.0 mi West 16.1 mph 26.5 mph N/A   Clear
12:35 PM 51.8 °F - 17.6 °F 26% 29.84 in 10.0 mi West 21.9 mph 26.5 mph N/A   Clear
12:55 PM 53.6 °F - 15.8 °F 22% 29.83 in 10.0 mi West 23.0 mph 28.8 mph N/A   Clear
1:15 PM 55.4 °F - 15.8 °F 21% 29.81 in 10.0 mi West 19.6 mph 26.5 mph N/A   Clear
1:35 PM 55.4 °F - 15.8 °F 21% 29.80 in 10.0 mi West 24.2 mph 29.9 mph N/A   Clear
1:55 PM 57.2 °F - 15.8 °F 20% 29.79 in 10.0 mi WSW 25.3 mph 31.1 mph N/A   Clear
2:15 PM 57.2 °F - 15.8 °F 20% 29.78 in 10.0 mi WSW 16.1 mph 27.6 mph N/A   Clear
2:35 PM 59.0 °F - 15.8 °F 19% 29.77 in 10.0 mi WSW 25.3 mph 32.2 mph N/A   Clear
2:55 PM 60.8 °F - 15.8 °F 17% 29.77 in 10.0 mi SW 23.0 mph 27.6 mph N/A   Clear
3:15 PM 60.8 °F - 12.2 °F 15% 29.76 in 10.0 mi WSW 26.5 mph 31.1 mph N/A   Clear
3:35 PM 59.0 °F - 12.2 °F 16% 29.76 in 10.0 mi WSW 24.2 mph 29.9 mph N/A   Clear
3:55 PM 59.0 °F - 12.2 °F 16% 29.76 in 10.0 mi WSW 19.6 mph 25.3 mph N/A   Clear
4:15 PM 59.0 °F - 12.2 °F 16% 29.75 in 10.0 mi WSW 27.6 mph 33.4 mph N/A   Clear
4:35 PM 57.2 °F - 12.2 °F 17% 29.74 in 10.0 mi SW 24.2 mph 31.1 mph N/A   Clear
4:55 PM 57.2 °F - 10.4 °F 16% 29.75 in 10.0 mi SSW 19.6 mph 26.5 mph N/A   Clear
5:15 PM 55.4 °F - 8.6 °F 15% 29.75 in 10.0 mi SSW 19.6 mph 26.5 mph N/A   Clear
5:55 PM 48.2 °F - 6.8 °F 19% 29.76 in 10.0 mi SSW 12.7 mph - N/A   Clear
6:15 PM 46.4 °F 41.1 °F 8.6 °F 22% 29.76 in 10.0 mi SSW 11.5 mph - N/A   Clear
6:35 PM 44.6 °F 38.4 °F 8.6 °F 23% 29.76 in 10.0 mi South 12.7 mph - N/A   Clear
6:55 PM 42.8 °F 37.0 °F 10.4 °F 27% 29.77 in 10.0 mi SSW 10.4 mph - N/A   Clear
7:15 PM 44.6 °F 38.1 °F 10.4 °F 25% 29.76 in 10.0 mi South 13.8 mph - N/A   Clear
7:35 PM 41.0 °F 34.7 °F 10.4 °F 29% 29.76 in 10.0 mi South 10.4 mph - N/A   Clear
7:55 PM 39.2 °F 31.6 °F 10.4 °F 31% 29.76 in 10.0 mi South 12.7 mph - N/A   Clear
8:15 PM 39.2 °F 32.0 °F 14.0 °F 36% 29.76 in 10.0 mi South 11.5 mph - N/A   Clear
8:35 PM 39.2 °F 32.0 °F 12.2 °F 33% 29.76 in 10.0 mi South 11.5 mph - N/A   Clear
8:55 PM 37.4 °F 30.3 °F 12.2 °F 36% 29.76 in 10.0 mi South 10.4 mph - N/A   Clear
9:35 PM 37.4 °F 31.4 °F 14.0 °F 38% 29.75 in 10.0 mi SSW 8.1 mph - N/A   Clear
9:55 PM 35.6 °F 32.8 °F 15.8 °F 44% 29.75 in 10.0 mi South 3.5 mph - N/A   Clear
10:15 PM 37.4 °F 34.9 °F 12.2 °F 36% 29.74 in 10.0 mi South 3.5 mph - N/A   Clear
10:35 PM 37.4 °F 33.8 °F 12.2 °F 36% 29.74 in 10.0 mi South 4.6 mph - N/A   Clear
10:55 PM 33.8 °F - 12.2 °F 41% 29.72 in 10.0 mi Calm Calm - N/A   Clear
11:15 PM 35.6 °F 29.2 °F 12.2 °F 38% 29.71 in 10.0 mi SSE 8.1 mph - N/A   Clear
11:35 PM 33.8 °F 30.8 °F 12.2 °F 41% 29.71 in 10.0 mi South 3.5 mph - N/A   Clear
11:55 PM 33.8 °F - 14.0 °F 44% 29.71 in 10.0 mi Calm Calm - N/A   Clear